timestamp,surface_pressure_avg,surface_temp_avg,battery_voltage,lat,long
2018-03-31 00:00:00+00:00,359.0463,1.4,12.65,47.84626,-54.09684
2018-03-31 00:10:00+00:00,359.2029,1.4,12.57,47.84626,-54.09684
2018-03-31 00:20:00+00:00,355.2446,1.4,12.65,47.84626,-54.09684
2018-03-31 00:30:00+00:00,345.4129,1.4,12.65,47.84626,-54.09684
2018-03-31 00:40:00+00:00,329.8729,1.39,12.65,47.84626,-54.09684
2018-03-31 00:50:00+00:00,327.6363,1.38,12.65,47.84626,-54.09684
2018-03-31 01:00:00+00:00,321.438,1.39,12.57,47.84626,-54.09684
2018-03-31 01:10:00+00:00,320.9047,1.39,12.57,47.84626,-54.09684
2018-03-31 01:20:00+00:00,317.5496,1.38,12.65,47.84626,-54.09684
2018-03-31 01:30:00+00:00,308.8697,1.4,12.65,47.84626,-54.09684
2018-03-31 01:40:00+00:00,298.5547,1.39,12.65,47.84626,-54.09684
2018-03-31 01:50:00+00:00,288.4247,1.39,12.65,47.84626,-54.09684
2018-03-31 02:00:00+00:00,286.1447,1.36,12.57,47.84626,-54.09684
2018-03-31 02:10:00+00:00,274.8248,1.32,12.57,47.84626,-54.09684
2018-03-31 02:20:00+00:00,261.6097,1.34,12.65,47.84626,-54.09684
2018-03-31 02:30:00+00:00,241.8098,1.36,12.65,47.84626,-54.09684
2018-03-31 02:40:00+00:00,238.5514,1.38,12.65,47.84626,-54.09684
2018-03-31 02:50:00+00:00,238.7798,1.33,12.65,47.84626,-54.09684
2018-03-31 03:00:00+00:00,228.8731,1.3,12.57,47.84626,-54.09684
2018-03-31 03:10:00+00:00,216.1397,1.3,12.57,47.84626,-54.09684
2018-03-31 03:20:00+00:00,216.7764,1.3,12.65,47.84626,-54.09684
2018-03-31 03:30:00+00:00,217.3881,1.3,12.65,47.84626,-54.09684
2018-03-31 03:40:00+00:00,202.3748,1.38,12.65,47.84626,-54.09684
2018-03-31 03:50:00+00:00,188.0414,1.4,12.65,47.84626,-54.09684
2018-03-31 04:00:00+00:00,187.6448,1.4,12.57,47.84626,-54.09684
2018-03-31 04:10:00+00:00,183.6898,1.4,12.57,47.84626,-54.09684
2018-03-31 04:20:00+00:00,172.6748,1.4,12.65,47.84626,-54.09684
2018-03-31 04:30:00+00:00,167.8398,1.4,12.65,47.84626,-54.09684
2018-03-31 04:40:00+00:00,167.3065,1.4,12.65,47.84626,-54.09684
2018-03-31 04:50:00+00:00,168.0732,1.4,12.65,47.84626,-54.09684
2018-03-31 05:00:00+00:00,170.9981,1.39,12.57,47.84626,-54.09684
2018-03-31 05:10:00+00:00,168.1881,1.37,12.57,47.84626,-54.09684
2018-03-31 05:20:00+00:00,169.8814,1.3,12.65,47.84626,-54.09684
2018-03-31 05:30:00+00:00,177.7431,1.31,12.65,47.84626,-54.09684
2018-03-31 05:40:00+00:00,170.4732,1.39,12.65,47.84626,-54.09684
2018-03-31 05:50:00+00:00,166.2815,1.45,12.65,47.84626,-54.09684
2018-03-31 06:00:00+00:00,178.3298,1.49,12.57,47.84626,-54.09684
2018-03-31 06:10:00+00:00,188.2548,1.49,12.57,47.84626,-54.09684
2018-03-31 06:20:00+00:00,184.4764,1.5,12.65,47.84626,-54.09684
2018-03-31 06:30:00+00:00,185.9165,1.54,12.65,47.84626,-54.09684
2018-03-31 06:40:00+00:00,200.8081,1.58,12.65,47.84626,-54.09684
2018-03-31 06:50:00+00:00,202.9881,1.6,12.65,47.84626,-54.09684
2018-03-31 07:00:00+00:00,202.9898,1.64,12.57,47.84626,-54.09684
2018-03-31 07:10:00+00:00,213.5214,1.69,12.57,47.84626,-54.09684
2018-03-31 07:20:00+00:00,222.5098,1.7,12.65,47.84626,-54.09684
2018-03-31 07:30:00+00:00,223.6814,1.71,12.65,47.84626,-54.09684
2018-03-31 07:40:00+00:00,220.6331,1.78,12.65,47.84626,-54.09684
2018-03-31 07:50:00+00:00,228.7481,1.8,12.65,47.84626,-54.09684
2018-03-31 08:00:00+00:00,243.2848,1.8,12.57,47.84626,-54.09684
2018-03-31 08:10:00+00:00,247.308,1.8,12.57,47.84626,-54.09684
2018-03-31 08:20:00+00:00,252.7681,1.8,12.65,47.84626,-54.09684
2018-03-31 08:30:00+00:00,257.7364,1.8,12.65,47.84626,-54.09684
2018-03-31 08:40:00+00:00,258.2547,1.8,12.65,47.84626,-54.09684
2018-03-31 08:50:00+00:00,257.3964,1.84,12.65,47.84626,-54.09684
2018-03-31 09:00:00+00:00,267.1081,1.9,12.57,47.84626,-54.09684
2018-03-31 09:10:00+00:00,281.553,1.9,12.57,47.84626,-54.09684
2018-03-31 09:20:00+00:00,295.2596,1.9,12.65,47.84626,-54.09684
2018-03-31 09:30:00+00:00,299.963,1.9,12.65,47.84626,-54.09684
2018-03-31 09:40:00+00:00,318.1197,1.9,12.65,47.84626,-54.09684
2018-03-31 09:50:00+00:00,332.2014,1.8,12.65,47.84626,-54.09684
2018-03-31 10:00:00+00:00,328.5313,1.79,12.57,47.84626,-54.09684
2018-03-31 10:10:00+00:00,323.1697,1.8,12.57,47.84626,-54.09684
2018-03-31 10:20:00+00:00,335.9496,1.78,12.65,47.84626,-54.09684
2018-03-31 10:30:00+00:00,339.488,1.79,12.65,47.84626,-54.09684
2018-03-31 10:40:00+00:00,346.2263,1.8,12.65,47.84626,-54.09684
2018-03-31 10:50:00+00:00,361.2295,1.76,12.65,47.84626,-54.09684
2018-03-31 11:00:00+00:00,367.6062,1.77,12.57,47.84626,-54.09684
2018-03-31 11:10:00+00:00,363.678,1.79,12.57,47.84626,-54.09684
2018-03-31 11:20:00+00:00,366.7863,1.75,12.65,47.84626,-54.09684
2018-03-31 11:30:00+00:00,379.4546,1.7,12.65,47.84626,-54.09684
2018-03-31 11:40:00+00:00,372.1714,1.76,12.65,47.84626,-54.09684
2018-03-31 11:50:00+00:00,367.8079,1.79,12.65,47.84626,-54.09684
2018-03-31 12:00:00+00:00,380.0196,1.7,12.57,47.84626,-54.09684
2018-03-31 12:10:00+00:00,368.5696,1.72,12.57,47.84626,-54.09684
2018-03-31 12:20:00+00:00,360.7562,1.74,12.65,47.84626,-54.09684
2018-03-31 12:30:00+00:00,370.8113,1.7,12.65,47.84626,-54.09684
2018-03-31 12:40:00+00:00,365.6113,1.7,12.65,47.84626,-54.09684
2018-03-31 12:50:00+00:00,360.3496,1.78,12.65,47.84626,-54.09684
2018-03-31 13:00:00+00:00,365.4296,1.79,12.65,47.84626,-54.09684
2018-03-31 13:10:00+00:00,365.3229,1.78,12.65,47.84626,-54.09684
2018-03-31 13:20:00+00:00,345.943,1.8,12.65,47.84626,-54.09684
2018-03-31 13:30:00+00:00,336.7747,1.8,12.65,47.84626,-54.09684
2018-03-31 13:40:00+00:00,340.5764,1.75,12.65,47.84626,-54.09684
2018-03-31 13:50:00+00:00,333.0847,1.77,12.65,47.84626,-54.09684
2018-03-31 14:00:00+00:00,317.4713,1.79,12.57,47.84626,-54.09684
2018-03-31 14:10:00+00:00,311.4913,1.78,12.57,47.84626,-54.09684
2018-03-31 14:20:00+00:00,293.8446,1.8,12.65,47.84626,-54.09684
2018-03-31 14:30:00+00:00,283.4981,1.8,12.65,47.84626,-54.09684
2018-03-31 14:40:00+00:00,277.4147,1.8,12.65,47.84626,-54.09684
2018-03-31 14:50:00+00:00,269.6214,1.8,12.65,47.84626,-54.09684
2018-03-31 15:00:00+00:00,254.0264,1.81,12.57,47.84626,-54.09684
2018-03-31 15:10:00+00:00,243.9364,1.9,12.57,47.84626,-54.09684
2018-03-31 15:20:00+00:00,238.2897,1.9,12.65,47.84626,-54.09684
2018-03-31 15:30:00+00:00,230.1414,1.9,12.65,47.84626,-54.09684
2018-03-31 15:40:00+00:00,219.5348,1.9,12.65,47.84626,-54.09684
2018-03-31 15:50:00+00:00,210.8931,1.93,12.65,47.84626,-54.09684
2018-03-31 16:00:00+00:00,205.1548,1.99,12.57,47.84626,-54.09684
2018-03-31 16:10:00+00:00,196.8165,1.99,12.57,47.84626,-54.09684
2018-03-31 16:20:00+00:00,189.8182,2.0,12.65,47.84626,-54.09684
2018-03-31 16:30:00+00:00,184.5547,1.99,12.65,47.84626,-54.09684
2018-03-31 16:40:00+00:00,179.0598,1.97,12.65,47.84626,-54.09684
2018-03-31 16:50:00+00:00,178.9898,1.94,12.65,47.84626,-54.09684
2018-03-31 17:00:00+00:00,178.3781,1.96,12.57,47.84626,-54.09684
2018-03-31 17:10:00+00:00,177.8015,1.91,12.57,47.84626,-54.09684
2018-03-31 17:20:00+00:00,171.9131,1.9,12.65,47.84626,-54.09684
2018-03-31 17:30:00+00:00,165.0815,1.94,12.65,47.84626,-54.09684
2018-03-31 17:40:00+00:00,167.1748,1.9,12.65,47.84626,-54.09684
2018-03-31 17:50:00+00:00,171.6682,1.9,12.65,47.84626,-54.09684
2018-03-31 18:00:00+00:00,172.8248,1.9,12.57,47.84626,-54.09684
2018-03-31 18:10:00+00:00,176.0948,1.97,12.57,47.84626,-54.09684
2018-03-31 18:20:00+00:00,183.6531,1.99,12.65,47.84626,-54.09684
2018-03-31 18:30:00+00:00,187.1315,1.99,12.65,47.84626,-54.09684
2018-03-31 18:40:00+00:00,187.6932,1.9,12.65,47.84626,-54.09684
2018-03-31 18:50:00+00:00,195.0248,1.9,12.65,47.84626,-54.09684
2018-03-31 19:00:00+00:00,200.0381,1.89,12.57,47.84626,-54.09684
2018-03-31 19:10:00+00:00,197.9881,1.89,12.57,47.84626,-54.09684
2018-03-31 19:20:00+00:00,201.6265,1.86,12.65,47.84626,-54.09684
2018-03-31 19:30:00+00:00,207.2698,1.86,12.65,47.84626,-54.09684
2018-03-31 19:40:00+00:00,214.5931,1.85,12.65,47.84626,-54.09684
2018-03-31 19:50:00+00:00,221.6848,1.84,12.65,47.84626,-54.09684
2018-03-31 20:00:00+00:00,229.1064,1.8,12.57,47.84626,-54.09684
2018-03-31 20:10:00+00:00,234.5081,1.8,12.57,47.84626,-54.09684
2018-03-31 20:20:00+00:00,243.8015,1.8,12.65,47.84626,-54.09684
2018-03-31 20:30:00+00:00,252.6531,1.8,12.65,47.84626,-54.09684
2018-03-31 20:40:00+00:00,259.9231,1.8,12.65,47.84626,-54.09684
2018-03-31 20:50:00+00:00,256.3047,1.8,12.65,47.84626,-54.09684
2018-03-31 21:00:00+00:00,263.8514,1.8,12.57,47.84626,-54.09684
2018-03-31 21:10:00+00:00,276.8864,1.8,12.57,47.84626,-54.09684
2018-03-31 21:20:00+00:00,280.058,1.8,12.65,47.84626,-54.09684
2018-03-31 21:30:00+00:00,277.6063,1.8,12.65,47.84626,-54.09684
2018-03-31 21:40:00+00:00,288.9664,1.8,12.65,47.84626,-54.09684
2018-03-31 21:50:00+00:00,309.5013,1.8,12.65,47.84626,-54.09684
2018-03-31 22:00:00+00:00,319.2163,1.8,12.57,47.84626,-54.09684
2018-03-31 22:10:00+00:00,323.8096,1.8,12.57,47.84626,-54.09684
2018-03-31 22:20:00+00:00,333.683,1.8,12.65,47.84626,-54.09684
2018-03-31 22:30:00+00:00,341.7579,1.8,12.65,47.84626,-54.09684
2018-03-31 22:40:00+00:00,334.8463,1.8,12.65,47.84626,-54.09684
2018-03-31 22:50:00+00:00,338.7563,1.8,12.65,47.84626,-54.09684
2018-03-31 23:00:00+00:00,355.5929,1.8,12.57,47.84626,-54.09684
2018-03-31 23:10:00+00:00,358.113,1.8,12.57,47.84626,-54.09684
2018-03-31 23:20:00+00:00,358.8713,1.8,12.65,47.84626,-54.09684
2018-03-31 23:30:00+00:00,363.7363,1.8,12.65,47.84626,-54.09684
2018-03-31 23:40:00+00:00,366.8896,1.8,12.65,47.84626,-54.09684
2018-03-31 23:50:00+00:00,360.0112,1.8,12.65,47.84626,-54.09684
